Location: Ehrke Reservoir
(40.0279°N, 99.6641°W)
Time: 02:32:05
(UTC+00:00)

Cosmos 1703 - Pass Details

Date: 20 January 2020
Orbit: 524 x 541 km, 82.5° (Epoch: 22 February)

Event Time Altitude Azimuth Distance (km) Brightness Sun altitude
Rises 01:26:42 0° 178° (S) 2,675 6.9 -19.8°
Reaches altitude 10° 01:28:51 10° 175° (S) 1,791 6.0 -20.2°
Enters shadow 01:32:15 56° 131° (SE) 649 3.4 -20.9°
